Location: Kidbrooke
(51.4667°N, 0.0333°E)
Time: 21:38:31
(UTC+00:00)

Daily predictions for brighter satellites

Satellite Brightness Start Highest point End
(mag) Time Altitude Azimuth Time Altitude Azimuth Time Altitude Azimuth
Meteor 1-21 4.4 18:41:51 10° N 18:47:23 57° ENE 18:52:56 10° SSE
COSMO-SKYMED 1 3.5 18:45:12 10° N 18:49:28 55° WNW 18:53:42 10° SSW
USA 229 DEB 4.2 18:44:36 10° WSW 18:50:55 63° NW 18:57:54 10° NE
USA 229 4.2 18:44:41 10° WSW 18:51:01 63° NW 18:57:59 10° NE
Cosmos 1707 2.6 18:48:51 10° N 18:52:42 76° E 18:56:28 10° SSE
Cosmos 2322 3.8 18:47:45 10° NNW 18:53:29 89° ENE 18:59:08 10° SSE
Okean 1-7 3.0 18:49:45 10° N 18:54:08 72° ENE 18:58:29 10° SSE
Cosmos 1954 Rocket 4.1 18:49:26 10° NNW 18:54:42 86° WSW 18:59:58 10° SSE
CZ-4B R/B 3.3 18:49:10 10° SSE 18:54:51 89° ENE 19:00:32 10° NNW
Cosmos 1727 Rocket 4.0 18:49:55 10° S 18:56:14 80° E 19:02:31 10° NNE
Cosmos 1674 2.6 18:53:22 10° N 18:57:05 69° ENE 19:00:47 10° SSE
Cosmos 1980 4.3 18:53:18 10° NNW 18:58:40 40° NE 19:04:00 10° ESE
Cosmos 2219 Rocket 2.6 18:54:25 10° NW 19:00:05 69° WSW 19:05:44 10° SSE
Cosmos 2333 Rocket 3.4 18:56:28 10° NW 19:02:00 48° WSW 19:07:29 10° S
Cosmos 1933 Rocket 3.6 18:59:05 10° S 19:03:18 55° E 19:07:34 10° NNE
Cosmos 1975 3.1 18:59:39 10° SSE 19:03:23 42° E 19:07:11 10° NNE
SJ-6B 2.9 19:00:24 10° SSE 19:04:13 54° ENE 19:07:59 10° N
CZ-4C R/B 4.0 19:00:44 10° N 19:04:24 57° WNW 19:08:16 10° SSW
Meteor 2-9 Rocket 4.1 19:01:56 10° S 19:07:27 86° E 19:12:51 10° NNE
Cosmos 1726 3.2 19:05:44 10° SE 19:08:30 22° E 19:11:19 10° NE
CSL-04 Debris 4.3 19:04:31 10° SE 19:09:49 59° ENE 19:15:11 10° N
BREEZE-M DEB (TANK) 4.2 19:06:39 10° W 19:10:40 22° SW 19:12:54 10° S
Cosmos 2061 Rocket 4.3 19:04:46 10° N 19:11:04 52° ENE 19:17:18 10° SSE
USA 267 4.4 19:05:32 10° SSE 19:11:39 41° SW 19:17:50 10° WNW
Cosmos 1869 Rocket 4.0 19:09:00 10° SSE 19:12:59 37° E 19:17:00 10° NNE
COSMOS 2428 2.8 19:07:27 10° NNW 19:13:13 86° WSW 19:18:58 10° SSE
SL-14 R/B 3.8 19:11:59 10° N 19:15:36 37° ENE 19:19:10 10° SE
Cosmos 1459 Rocket 4.0 19:12:17 10° N 19:18:22 87° W 19:24:27 10° S
USA 281 3.4 19:14:00 10° NNE 19:20:36 81° WNW 19:27:10 10° SW
NOSS 3-2 (A) 4.2 19:13:24 10° NW 19:20:42 81° SW 19:29:17 10° SE
Cosmos 2297 Rocket 3.2 19:16:54 10° SSE 19:21:11 23° ESE 19:25:30 10° NE
ATLAS 3B R/B 4.2 19:15:02 10° WNW 19:21:24 32° N 19:28:05 10° NE
Cosmos 1867 4.3 19:19:47 10° S 19:24:27 30° ESE 19:29:08 10° ENE
IGS 5A 3.9 19:23:14 10° S 19:27:19 65° WSW 19:31:27 10° NNW
Cosmos 1725 Rocket 3.9 19:22:01 10° N 19:28:14 74° E 19:34:25 10° SSE
MINOTAUR 4 R/B 4.0 19:25:46 10° NNE 19:29:13 82° WNW 19:32:37 10° SSW
Resurs 01 Rocket 2.2 19:25:55 13° SE 19:29:23 37° ENE 19:33:28 10° N
JB-3 4.5 19:26:00 10° NNE 19:30:03 82° WNW 19:34:07 10° SSW
CZ-4C R/B 3.7 19:24:40 10° NW 19:30:35 37° NNE 19:36:50 13° E
Cosmos 1371 Rocket 4.3 19:25:39 10° SSW 19:30:54 72° WNW 19:36:10 10° NNE
CENTAUR R/B 3.5 19:23:07 10° NW 19:31:11 72° SW 19:40:09 10° SSE
NOSS 3-2 (C) 4.0 19:24:02 10° NW 19:31:16 79° NE 19:38:47 14° SE
Cosmos 1626 3.7 19:28:38 10° NNW 19:31:58 37° W 19:35:15 10° SSW
Cosmos 1733 3.2 19:29:22 10° S 19:33:03 55° E 19:36:45 10° NNE
Landsat 7 3.8 19:29:28 10° SSE 19:34:11 89° E 19:38:57 10° NNW
Cosmos 1271 Rocket 4.5 19:36:59 15° ENE 19:36:59 15° ENE 19:38:28 10° NE
Cosmos 1703 Rocket 4.4 19:32:02 10° NNW 19:36:24 54° W 19:40:42 10° S
Cosmos 2227 Rocket 3.4 19:35:02 16° SE 19:37:06 19° E 19:40:58 10° ENE
CZ-4 R/B 2.8 19:34:44 10° SSW 19:38:19 38° W 19:41:59 10° NNW
Cosmos 2056 Rocket 3.9 19:34:14 10° SW 19:39:19 65° WNW 19:44:26 10° NNE
Iridium 4 Rocket 2.8 19:37:51 10° N 19:42:06 79° E 19:46:14 10° S
Cosmos 192 4.3 19:38:04 10° S 19:42:56 60° ESE 19:47:49 10° NNE
Cosmos 2098 Rocket 3.8 19:37:50 10° S 19:43:17 82° E 19:49:53 10° NNE
Terra 3.6 19:42:45 13° ENE 19:43:58 15° NE 19:46:31 10° NNE
Cosmos 1802 Rocket 4.3 19:38:29 10° NNW 19:44:42 72° W 19:50:59 10° S
USA 238 DEB 3.9 19:37:43 10° NW 19:44:57 77° NE 19:50:50 19° SE
Geosat 4.0 19:40:51 15° SE 19:44:58 75° NE 19:50:01 10° NNW
USA 238 3.9 19:37:49 10° NW 19:45:03 77° NE 19:50:55 19° SE
SL-16 R/B 3.1 19:41:28 10° NNW 19:46:38 33° NE 19:49:39 21° E
Resurs 1-3 3.7 19:42:18 10° S 19:46:40 77° WSW 19:51:04 10° NNW
Cosmos 1674 Rocket 4.3 19:47:28 10° N 19:51:24 32° ENE 19:52:41 27° ESE
Cosmos 1850 Rocket 4.1 19:46:54 10° NNW 19:52:16 81° WSW 19:57:17 12° SSE
Meteor 2-10 3.8 19:49:24 10° S 19:54:24 78° E 19:59:31 10° NNE
Cosmos 1733 Rocket 3.5 19:53:01 22° SE 19:55:11 37° E 19:59:10 10° NNE
Okean-O 2.6 19:52:29 10° SSE 19:56:55 83° WSW 20:01:23 10° NNW
Okean 2 3.6 19:53:42 10° NNW 19:57:46 70° W 20:01:49 10° S
Cosmos 2016 Rocket 4.3 19:51:57 10° NNW 19:58:00 68° W 20:04:04 10° S
NOSS 0 Rocket 4.3 19:53:03 10° NW 19:59:11 65° WSW 20:05:06 11° SSE
CARTOSAT-1 3.9 19:58:45 29° ESE 20:00:29 46° ENE 20:04:37 10° N
SPOT 1/Viking Rocket 3.5 19:55:57 13° SSE 20:00:40 82° ENE 20:05:55 10° NNW
Cosmos 1110 Rocket 4.0 19:56:46 10° S 20:01:50 54° ESE 20:06:54 10° NNE
Cosmos 1378 Rocket 4.0 19:58:30 10° N 20:02:43 42° ENE 20:04:03 33° ESE
SPOT 5 3.8 20:02:23 25° E 20:03:29 28° ENE 20:07:34 10° N
Cosmos 2221 Rocket 3.8 19:59:28 10° N 20:03:49 49° ENE 20:05:26 33° SE
Cosmos 2123 Rocket 4.2 19:57:34 10° SSW 20:03:52 78° W 20:10:15 10° N
Okean O Rocket 3.6 20:01:34 10° SSW 20:05:24 29° W 20:09:15 10° NW
Helios 1B 4.4 20:01:28 10° NNE 20:05:50 83° ESE 20:10:10 10° SSW
BREEZE-M DEB (TANK) 2.8 20:01:46 10° W 20:07:37 62° SSW 20:08:22 44° SE
ISS -3.8 20:04:36 10° W 20:07:57 85° N 20:08:42 51° E
GEOS 3 Rocket 4.1 20:03:07 10° NE 20:08:28 64° NW 20:13:47 10° WSW
CSL-04 Rocket 4.4 20:08:18 10° S 20:13:44 54° W 20:19:11 10° NNW
Cosmos 1447 Rocket 4.4 20:10:42 10° S 20:16:49 64° E 20:22:56 10° NNE
Cosmos 1452 Rocket 3.5 20:11:35 10° SSW 20:16:52 90° WNW 20:22:12 10° NNE
USA 215 3.7 20:10:33 10° ENE 20:16:59 61° NNW 20:23:23 10° W
USA 186 4.2 20:14:58 10° SSW 20:17:28 22° W 20:20:00 10° NW
ADEOS Rocket 4.0 20:15:26 27° E 20:17:57 36° ENE 20:24:17 10° N
Cosmos 1766 3.1 20:17:38 46° SSE 20:18:32 63° E 20:22:18 10° NNE
Cosmos 1331 Rocket 3.8 20:13:41 10° SSW 20:18:47 68° ESE 20:23:56 10° NNE
Cosmos 2237 Rocket 2.4 20:16:01 10° NW 20:21:38 67° WSW 20:25:11 23° SSE
H-2A R/B 2.9 20:23:55 44° E 20:24:35 48° ENE 20:28:53 10° N
MetOp-B 4.1 20:29:53 38° SE 20:31:58 72° ENE 20:37:20 10° NNW
ATLAS CENTAUR R/B 4.1 20:16:58 10° SW 20:32:50 79° SE 20:40:03 10° ENE
Cosmos 968 Rocket 3.4 20:30:18 10° NNW 20:35:30 81° WSW 20:37:26 39° SSE
Lacrosse 5 rocket 2.5 20:32:06 10° SW 20:34:34 30° SSW 20:34:34 30° SSW
SJ 16-02 2.4 20:32:27 10° N 20:36:14 30° NE 20:36:14 30° NE
Meteor 1-12 Rocket 4.2 20:38:17 36° SSE 20:40:31 60° E 20:46:09 10° NNE
Cosmos 1975 Rocket 4.5 20:37:01 10° N 20:39:54 25° NE 20:39:54 25° NE
FALCON 9 R/B 4.2 20:24:59 10° WSW 20:41:56 31° SSW 20:45:16 24° SSE
Cosmos 1726 4.0 20:39:53 10° SW 20:43:00 29° WNW 20:46:10 10° N
ERS-1 Rocket 3.2 20:44:49 48° E 20:45:12 49° ENE 20:50:04 10° N
Cosmos 1513 Rocket 4.3 20:39:22 10° N 20:45:28 78° E 20:47:45 41° SSE
Meteor 1-24 Rocket 3.8 20:39:44 10° N 20:45:38 67° ENE 20:47:15 48° SE
Meteor 2-15 4.3 20:43:38 10° N 20:49:49 77° ENE 20:51:48 45° SSE
BREEZE-M DEB (TANK) 3.0 20:43:23 10° WNW 20:49:56 70° SSW 20:50:42 57° SE
Landsat 5 4.1 20:46:39 10° N 20:50:24 51° WNW 20:53:40 13° SW
Ariane Rocket 2.9 20:49:52 56° SSE 20:50:58 84° ENE 20:56:04 10° NNW
Meteor 2-8 Rocket 4.4 20:45:27 10° N 20:51:36 73° ENE 20:53:21 48° SSE
Spot 2 4.3 20:51:12 62° ESE 20:51:44 67° ENE 20:56:35 10° N
Cosmos 482 Debris 4.3 20:48:03 10° WNW 20:52:59 77° WSW 20:52:59 77° WSW
Cosmos 1943 4.1 20:48:36 10° NNW 20:53:40 33° NE 20:54:31 31° ENE
Meteor 2-15 Rocket 4.4 20:49:34 10° N 20:55:44 67° ENE 20:57:02 53° SE
Spot 2 Rocket 3.4 21:01:35 65° E 21:01:49 66° ENE 21:06:54 10° N
Cosmos 1302 Rocket 3.8 21:02:14 60° S 21:03:11 78° ESE 21:08:30 10° NNE
Cosmos 2297 Rocket 2.3 20:59:02 10° SW 21:04:40 73° WNW 21:10:22 10° NNE
Resurs 01 Rocket 3.3 21:03:27 18° SW 21:05:56 30° W 21:09:50 10° NNW
Cosmos 2034 Rocket 3.9 21:00:49 10° N 21:07:01 67° ENE 21:07:51 60° ESE
Cosmos 1867 3.9 21:02:18 10° SW 21:07:43 64° NW 21:13:11 10° NE
Cosmos 1271 Rocket 3.6 21:11:48 46° NW 21:11:48 46° NW 21:15:07 10° N
Cosmos 2219 3.3 21:13:55 57° ENE 21:13:55 57° ENE 21:18:34 10° NE
Meteor 2-5 Rocket 3.9 21:07:15 10° NNW 21:13:03 75° W 21:14:30 52° SSW
SPOT 3 Rocket 3.4 21:12:40 74° S 21:13:09 86° WSW 21:18:25 10° NNW
ATLAS 3B R/B 3.9 21:07:13 10° NW 21:14:06 39° NNE 21:17:41 26° ENE
Cosmos 1470 4.0 21:15:43 38° N 21:15:43 38° N 21:18:14 10° N
deb Chang Zheng 4 4.4 21:16:08 40° N 21:16:08 40° N 21:18:43 10° NNW
CZ-4C R/B 2.9 21:13:07 10° NW 21:20:03 80° NE 21:21:59 55° ESE
Cosmos 2227 Rocket 2.1 21:14:45 10° SSW 21:20:26 85° WNW 21:26:09 10° NNE
Terra 2.0 21:21:29 66° N 21:21:29 66° N 21:25:36 10° NNW
Cosmos 1503 Rocket 4.3 21:22:11 10° NNW 21:26:52 57° NNE 21:26:52 57° NNE
SL-16 R/B 2.4 21:25:30 10° NW 21:31:06 59° WSW 21:31:32 57° SW
Cosmos 1486 Rocket 4.2 21:33:19 10° NNW 21:38:14 71° WNW 21:38:14 71° WNW
SPOT 5 3.6 21:41:34 46° W 21:41:34 46° W 21:45:59 10° NNW
ISS -0.5 21:41:24 10° W 21:41:38 12° W 21:41:38 12° W
H-2A R/B 4.2 21:50:20 10° NNE 21:51:45 20° NNE 21:51:45 20° NNE
Cosmos 2279 Rocket 4.4 21:51:08 10° N 21:56:22 51° NE 21:56:22 51° NE
USA 215 3.6 21:57:51 45° ENE 21:59:36 58° N 22:05:59 10° WNW
ADEOS Rocket 3.5 22:02:22 54° SW 22:03:08 58° W 22:10:05 10° NNW
Cosmos 2263 Rocket 3.8 22:13:19 24° NE 22:13:19 24° NE 22:15:29 10° NNE
ARIANE 5 R/B 4.5 22:16:23 28° NNW 22:16:23 28° NNW 22:18:30 10° NNW
SJ 16-02 3.3 22:10:50 10° NW 22:13:07 26° WNW 22:13:07 26° WNW
ATLAS 2AS CENTAUR R/B 4.4 22:29:01 22° ENE 22:29:01 22° ENE 22:31:25 10° NE
Cosmos 1634 Rocket 4.4 22:27:37 10° NNW 22:33:09 58° WNW 22:33:09 58° WNW
Cosmos 1943 4.2 22:32:32 10° NW 22:36:19 41° NW 22:36:19 41° NW
NOSS 3-4 (A) 4.0 22:42:49 51° NNW 22:42:49 51° NNW 22:49:01 10° NE
NOSS 3-4 (C) 4.0 22:43:07 51° NNW 22:43:07 51° NNW 22:49:06 10° NE
ATLAS CENTAUR R/B 3.8 22:37:03 10° W 22:48:18 58° NNW 22:49:44 48° NNE
Cosmos 2297 Rocket 4.5 22:45:30 10° W 22:49:44 21° NW 22:53:59 10° NNE
Terra 4.3 23:00:14 15° WNW 23:00:14 15° WNW 23:01:57 10° NW
Cosmos 2082 Rocket 4.5 22:57:30 10° N 23:01:01 16° NNE 23:02:28 15° NE
NOSS 3-1 (A) 4.5 22:56:17 10° NW 23:02:54 50° NNE 23:03:39 48° NE
Cosmos 2227 Rocket 4.3 23:00:51 10° W 23:05:20 23° NW 23:09:50 10° NNE
ATLAS 3B R/B 3.0 22:58:15 10° NW 23:04:56 71° NNW 23:04:56 71° NNW
CZ-4C R/B 4.0 23:01:53 10° NW 23:07:09 33° W 23:07:09 33° W
Cosmos 1833 Rocket 4.3 23:08:59 10° NNW 23:12:54 29° NNE 23:12:54 29° NNE
Cosmos 2344 3.9 23:10:09 10° NW 23:18:38 83° SW 23:18:50 82° SSW
USA 215 4.2 23:45:10 39° WNW 23:45:10 39° WNW 23:49:02 10° WNW
NOSS 3-1 (C) 4.4 23:43:00 10° NW 23:48:11 55° NW 23:48:11 55° NW
Cosmos 2263 Rocket 3.9 23:54:56 27° NNW 23:54:56 27° NNW 23:59:09 10° NNE
